Regional Weather Roundup
Issued by NWS

Home | Current Version | Previous Version | Text Only | Print | Product List | Glossary On
Versions: 1 2 3 4 5 6 7 8 9 10 11 12 13 14 15 16 17 18 19 20 21 22 23 24 25 26 27 28 29 30 31 32 33 34 35 36 37 38 39 40 41 42 43 44 45 46 47 48 49 50
000
ASUS44 KFWD 280910
RWRTX
NORTH TEXAS HOURLY WEATHER ROUNDUP
NATIONAL WEATHER SERVICE FORT WORTH TX
400 AM CDT SAT MAR 28 2015

NOTE: "FAIR" INDICATES FEW OR NO CLOUDS BELOW 12,000 FEET WITH NO
SIGNIFICANT WEATHER AND/OR OBSTRUCTIONS TO VISIBILITY.

TXZ118-119-281000-
DALLAS/FORT WORTH METROPLEX

CITY           SKY/WX    TMP DP  RH WIND       PRES   REMARKS
DFW AIRPORT    PTCLDY    47  39  74 SE6       30.09F
DALLAS LOVE    PTCLDY    50  39  66 SE6       30.11F
FTW MEACHAM    CLEAR     48  40  73 S7        30.10F
DAL-EXECUTIVE  CLEAR     48  39  71 S6        30.11F
FTW-ALLIANCE   PTCLDY    47  39  74 CALM      30.09F
FTW-SPINKS     CLEAR     47  39  74 CALM      30.12F
ARLINGTON      CLEAR     51  38  60 S3        30.11F
ADDISON        CLEAR     51  40  64 SE6       30.12F
MESQUITE       CLEAR     46  39  78 CALM      30.13S
LANCASTER      CLEAR     43  38  84 CALM      30.13S
$$

TXZ091>094-102>105-117-120-121-131>134-281000-
NORTH CENTRAL TEXAS

CITY           SKY/WX    TMP DP  RH WIND       PRES   REMARKS
SHRMAN/DENISON CLEAR     49  41  74 S10       30.11F
GAINESVILLE    CLEAR     42  38  86 SE5       30.11F WCI  39
BOWIE          CLEAR     47  40  76 SE7       30.07F
BRIDGEPORT     CLEAR     49  42  74 SE3       30.11F
DECATUR        CLEAR     49  38  66 SE7       30.09F
DENTON         CLEAR     48  40  73 SE3       30.10F
MCKINNEY       CLEAR     44  39  82 CALM      30.11F
GREENVILLE     CLEAR     41  37  87 CALM      30.13F
ROCKWALL       CLEAR     47  40  74 SE6       30.10F
TERRELL        CLEAR     48  39  71 CALM      30.13F
WAXAHACHIE     CLEAR     46  40  80 E3        30.13F
CLEBURNE       CLEAR     48  39  71 SE9       30.12F
GRANBURY         N/A     49  41  73 SE5       30.13F
$$

TXZ083>090-098>101-113>116-127>130-139>142-154-155-281000-
WESTERN NORTH TEXAS

CITY           SKY/WX    TMP DP  RH WIND       PRES   REMARKS
WICHITA FALLS  CLEAR     48  40  73 S13       30.06F
WF-KICKAPOO    CLEAR     48  42  79 S6        30.08F
VERNON         PTCLDY    47  38  69 S3        30.07F
ABILENE        CLEAR     53  40  61 SE10      30.08F
ABILENE-DYESS  CLEAR     52  40  64 S10       30.06F
BRECKENRIDGE   CLEAR     54  41  62 SE8       30.08F
GRAHAM         CLEAR     51  42  71 SE6       30.07F
MINERAL WELLS  CLEAR     49  40  71 SE13      30.09F
STEPHENVILLE   CLEAR     47  41  78 SE3       30.14F
COMANCHE       CLEAR     48  43  84 SE8       30.12F
BROWNWOOD      PTCLDY    45  41  87 CALM      30.11F
COLEMAN        CLEAR     50  42  73 CALM      30.11S
BRADY          CLEAR     61  36  39 SW9       30.09F
$$

TXZ143>147-156>162-174-175-281000-
CENTRAL TEXAS

CITY           SKY/WX    TMP DP  RH WIND       PRES   REMARKS
WACO           CLEAR     49  41  74 E5        30.13F
WACO-MCGREGOR  CLEAR     46  37  71 SE3       30.14F
HILLSBORO      CLEAR     51  39  63 E13       30.12F
CORSICANA      CLEAR     50  40  68 SE7       30.13F
MEXIA          CLEAR     47  39  75 E3        30.12F
HEARNE         CLEAR     51  43  73 CALM      30.15F
CAMERON        CLEAR     52  45  77 E3        30.14F
TEMPLE         CLEAR     50  39  66 CALM      30.13F
KILLEEN        CLEAR     55  42  61 VRB1      30.13F HAZE
KILLEEN-SKYLRK CLEAR     52  39  62 MISG      30.13F
FORT HOOD      CLEAR     53  42  65 SE6       30.12F
GATESVILLE     CLEAR     50  43  76 CALM      30.15F
HAMILTON       CLEAR     48  42  77 S13       30.14F
$$

TXZ095>097-106>112-122>126-135>138-148>153-164>167-281000-
EAST TEXAS

CITY           SKY/WX    TMP DP  RH WIND       PRES   REMARKS
SULPHUR SPRNGS CLEAR     46  36  69 E3        30.16S
MOUNT PLEASANT CLEAR     42  42  99 CALM      30.15F
GILMER         CLEAR     43  40  90 CALM      30.14F
MINEOLA        CLEAR     43  41  93 CALM      30.14F
TYLER          CLEAR     48  37  65 SE6       30.12F
LONGVIEW       CLEAR     45  40  82 CALM      30.13F
MARSHALL       CLEAR     42  40  93 CALM      30.17S
ATHENS         CLEAR     43  37  81 CALM      30.13F
PALESTINE      CLEAR     47  35  63 CALM      30.15F
JACKSONVILLE   CLEAR     49  37  63 E3        30.16S
HENDERSON      CLEAR     43  40  88 CALM      30.15F
NACOGDOCHES    MOCLDY    41  37  87 CALM      30.15F
LUFKIN         CLEAR     49  41  74 N3        30.15F
$$

SUPPLEMENTAL OBSERVATIONS (CENTRAL)

CITY           SKY/WX    TMP DP  RH WIND       PRES   REMARKS
CADDO GRASSLND   N/A     46  37  71 S6          N/A
PAT MAYSE LAKE   N/A     46  32  57 SE12        N/A
GREENVILLE       N/A     46  36  66 E3          N/A
CEDAR HILL       N/A     50  36  57 W1G10       N/A
MCGREGOR         N/A     48  43  81 CALM        N/A
TEMPLE           N/A     52  43  71 E6          N/A
$$

SUPPLEMENTAL OBSERVATIONS (WEST)

CITY           SKY/WX    TMP DP  RH WIND       PRES   REMARKS
MILLERS CREEK    N/A     52  41  66 S10G20      N/A
POSSUM KINGDOM   N/A     52  39  62 SE12        N/A
LBJ GRASSLAND    N/A     48  37  66 SE7         N/A
GRANBURY         N/A     48  39  71 S6          N/A
HAMBY            N/A     54  39  58 S7          N/A
IVIE RESERVOIR   N/A     61  34  36 S5          N/A
COLORADO BEND    N/A     52  39  62 E2          N/A
$$

SUPPLEMENTAL OBSERVATIONS (EAST)

CITY           SKY/WX    TMP DP  RH WIND       PRES   REMARKS
CLARKSVILLE      N/A     45  36  70 S5          N/A
GILMER           N/A     43  37  81 CALM        N/A
HENDERSON        N/A     43  37  81 CALM        N/A
LUFKIN           N/A     45  39  81 MISG        N/A
N SABINE NF      N/A     43  37  81 MISG        N/A
S SABINE NF      N/A     46  39  76 CALM        N/A
$$

SUPPLEMENTAL OBSERVATIONS ARE A COLLECTION OF AUTOMATED INSTRUMENTS
THAT ARE MAINTAINED BY A VARIETY OF FEDERAL AND STATE AGENCIES.
CERTAIN ELEMENTS...SUCH AS HUMIDITY VALUES AND SUSTAINED WIND
SPEEDS...MAY BE APPROXIMATED.



USA.gov is the U.S. government's official web portal to all federal, state and local government web resources and services.